Location: Fontevrault
(47.1823°N, 0.0493°E)
Time: 12:38:32
(UTC+00:00)

Cosmos 220 Rocket - Pass Details

Date: 16 June 2021
Orbit: 575 x 616 km, 74.0° (Epoch: 29 July)

Event Time Altitude Azimuth Distance (km) Brightness Sun altitude
Rises 20:34:39 0° 199° (SSW) 2,826 7.2 -5.6°
Reaches altitude 10° 20:36:52 10° 199° (SSW) 1,922 6.3 -5.9°
Maximum altitude 20:41:10 86° 114° (ESE) 597 4.0 -6.4°
Drops below altitude 10° 20:45:26 10° 23° (NNE) 1,913 6.9 -6.9°
Sets 20:47:39 0° 23° (NNE) 2,812 7.8 -7.1°
